Главная страница
METAR-TAF:

METAR-TAF

Аэропорты :

Хуна

Hoonah, Аляска, США

широта: 58-07N, долгота: 135-27W, высота над уровнем моря: 0 м

Текущие метеонаблюдения

Эта сводка был подготовлена 56 минут назад, в 01:56 UTC
Ветер 3 Узел переменных направлений
Температура 13°C
Влажность 82%
Давление 1023 hPa
Видимость: 16.1 км
Сплошная облачность на высоте 4300 фута

METAR: PAOH 250156Z AUTO VRB03KT 10SM OVC043 13/10 A3020 RMK AO2 SLP227 T01330100

Время: 18:52 (02:52 UTC)


TAF: отсутствует

Метеонаблюдения и прогнозы для более 4000 аэропортов (сводки METAR и TAF).

Имеющиеся станции представлены на карте желтыми и красными точками.

Чтобы увидеть название станции, наведите на нее мышь.

Затем щелкните, чтобы увидеть метеонаблюдения и метеопрогнозы.

Управление картой: чтобы увеличить масштаб, щелкните зеленые кнопки с черным крестиком; чтобы уменьшить масштаб, щелкните зеленую кнопку с тире; для просмотра соседних карт щелкайте зеленые стрелки.


METAR-TAF: